Location: Great Falls
(47.5000°N, 111.3000°W)
Time: 10:43:45
(UTC-07:00)

ISS - Pass Details

Date: 28 October 2019
Orbit: 412 x 421 km, 51.6° (Epoch: 13 November)

Event Time Altitude Azimuth Distance (km) Brightness Sun altitude
Exits shadow 06:28:40 29° 221° (SW) 808 -2.7 -16.4°
Maximum altitude 06:30:11 61° 151° (SSE) 481 -3.4 -16.2°
Drops below altitude 10° 06:33:32 10° 70° (ENE) 1,507 0.1 -15.6°
Sets 06:35:39 0° 67° (ENE) 2,373 1.3 -15.2°
